RWZ706 UUDL-ULLI

Flight info

Callsign RWZ706
Flight time 1h 7m
Altitude 32000
Route RIRAT2M RIRAT T289 ADUSI DCT IBOGI P164 PINOK N50 GENPA GENPA1B
Aircraft SU95/M-SDE3GILORVW/S

Departure

Time 2026-04-22 13:06
Airport Golden Ring Yaroslavl International Airport (UUDL)

Arrival

Time 2026-04-22 14:13
Airport Pulkovo Airport (ULLI)
Time Latitude Longitude Altitude Speed Heading
2026-04-22 12:48 57.56328 40.17443 309 ft 0 kts 19°
2026-04-22 13:02 57.56344 40.17448 309 ft 4 kts 354°
2026-04-22 13:02 57.56368 40.17456 309 ft 4 kts 31°
2026-04-22 13:03 57.56386 40.17496 309 ft 5 kts 62°
2026-04-22 13:03 57.56403 40.17554 309 ft 6 kts 62°
2026-04-22 13:03 57.56421 40.17625 310 ft 7 kts 61°
2026-04-22 13:03 57.56457 40.17672 310 ft 7 kts 356°
2026-04-22 13:04 57.56507 40.17640 309 ft 9 kts 337°
2026-04-22 13:04 57.56569 40.17646 308 ft 10 kts 34°
2026-04-22 13:04 57.56603 40.17749 309 ft 9 kts 64°
2026-04-22 13:04 57.56621 40.17860 310 ft 9 kts 96°
2026-04-22 13:05 57.56630 40.17938 309 ft 2 kts 360°
2026-04-22 13:05 57.56642 40.17909 310 ft 6 kts 279°
2026-04-22 13:05 57.56635 40.17858 308 ft 0 kts 245°
2026-04-22 13:05 57.56509 40.17391 309 ft 82 kts 243°
2026-04-22 13:06 57.56142 40.16025 321 ft 150 kts 244°
2026-04-22 13:06 57.55630 40.14108 742 ft 178 kts 244°
2026-04-22 13:06 57.55035 40.11885 1456 ft 206 kts 244°
2026-04-22 13:06 57.54398 40.09543 1933 ft 199 kts 244°
2026-04-22 13:07 57.53726 40.07060 2374 ft 229 kts 244°
2026-04-22 13:07 57.52981 40.04305 2847 ft 242 kts 244°
2026-04-22 13:07 57.52219 40.01491 3319 ft 245 kts 244°
2026-04-22 13:07 57.51570 39.98572 3778 ft 246 kts 259°
2026-04-22 13:08 57.51465 39.95384 4265 ft 249 kts 268°
2026-04-22 13:08 57.51427 39.92177 4722 ft 250 kts 268°
2026-04-22 13:08 57.51385 39.88936 5191 ft 251 kts 268°
2026-04-22 13:08 57.51343 39.85688 5660 ft 250 kts 268°
2026-04-22 13:09 57.51297 39.82476 6126 ft 254 kts 268°
2026-04-22 13:09 57.51249 39.79185 6574 ft 255 kts 268°
2026-04-22 13:09 57.51201 39.75873 7042 ft 258 kts 269°
2026-04-22 13:09 57.51154 39.72530 7507 ft 260 kts 269°
2026-04-22 13:10 57.51104 39.69159 7969 ft 262 kts 269°
2026-04-22 13:10 57.51051 39.65771 8445 ft 264 kts 269°
2026-04-22 13:10 57.50996 39.62341 8938 ft 266 kts 269°
2026-04-22 13:10 57.50941 39.58898 9430 ft 267 kts 269°
2026-04-22 13:11 57.50882 39.55404 9891 ft 277 kts 269°
2026-04-22 13:11 57.50822 39.51688 10391 ft 297 kts 269°
2026-04-22 13:11 57.50756 39.47767 10931 ft 307 kts 270°
2026-04-22 13:11 57.50689 39.43778 11478 ft 310 kts 270°
2026-04-22 13:12 57.50618 39.39747 12028 ft 313 kts 270°
2026-04-22 13:12 57.50544 39.35677 12598 ft 317 kts 270°
2026-04-22 13:12 57.50469 39.31571 13173 ft 320 kts 270°
2026-04-22 13:12 57.50392 39.27417 13710 ft 323 kts 270°
2026-04-22 13:13 57.50314 39.23235 14227 ft 326 kts 270°
2026-04-22 13:13 57.50233 39.19001 14754 ft 329 kts 270°
2026-04-22 13:13 57.50150 39.14737 15289 ft 332 kts 270°
2026-04-22 13:13 57.50066 39.10431 15834 ft 335 kts 270°
2026-04-22 13:14 57.49982 39.06279 16363 ft 337 kts 270°
2026-04-22 13:14 57.49892 39.01892 16928 ft 341 kts 270°
2026-04-22 13:14 57.49801 38.97471 17501 ft 344 kts 270°
2026-04-22 13:14 57.49707 38.93004 18055 ft 347 kts 270°
2026-04-22 13:15 57.49610 38.88505 18560 ft 349 kts 270°
2026-04-22 13:15 57.49511 38.83977 19084 ft 352 kts 270°
2026-04-22 13:15 57.49410 38.79425 19607 ft 354 kts 270°
2026-04-22 13:15 57.49308 38.74905 20137 ft 357 kts 270°
2026-04-22 13:16 57.49202 38.70272 20683 ft 360 kts 270°
2026-04-22 13:16 57.49093 38.65604 21236 ft 363 kts 270°
2026-04-22 13:16 57.48981 38.60903 21801 ft 366 kts 270°
2026-04-22 13:16 57.48867 38.56166 22377 ft 369 kts 270°
2026-04-22 13:17 57.48751 38.51382 22966 ft 372 kts 270°
2026-04-22 13:17 57.48631 38.46555 23495 ft 375 kts 270°
2026-04-22 13:17 57.48510 38.41729 23992 ft 376 kts 270°
2026-04-22 13:17 57.48385 38.36851 24502 ft 378 kts 270°
2026-04-22 13:18 57.48258 38.31955 25020 ft 380 kts 270°
2026-04-22 13:18 57.48129 38.27042 25550 ft 382 kts 270°
2026-04-22 13:18 57.47996 38.22093 26091 ft 384 kts 270°
2026-04-22 13:18 57.47908 38.18817 26452 ft 385 kts 270°
2026-04-22 13:19 57.47771 38.13831 27004 ft 386 kts 271°
2026-04-22 13:19 57.47636 38.09008 27554 ft 387 kts 271°
2026-04-22 13:19 57.47491 38.03861 28092 ft 389 kts 271°
2026-04-22 13:19 57.47348 37.98793 28377 ft 395 kts 271°
2026-04-22 13:20 57.47200 37.93686 28811 ft 398 kts 271°
2026-04-22 13:20 57.47048 37.88541 29257 ft 400 kts 271°
2026-04-22 13:20 57.46894 37.83368 29691 ft 402 kts 271°
2026-04-22 13:20 57.46738 37.78158 30004 ft 406 kts 271°
2026-04-22 13:21 57.46692 37.73012 30290 ft 408 kts 275°
2026-04-22 13:21 57.46792 37.67723 30594 ft 411 kts 276°
2026-04-22 13:21 57.46906 37.62387 30904 ft 415 kts 276°
2026-04-22 13:21 57.47020 37.57012 31202 ft 419 kts 276°
2026-04-22 13:22 57.47127 37.51578 31496 ft 423 kts 276°
2026-04-22 13:22 57.47325 37.40615 31588 ft 424 kts 275°
2026-04-22 13:23 57.47489 37.30803 31588 ft 424 kts 275°
2026-04-22 13:23 57.47665 37.19878 31588 ft 424 kts 275°
2026-04-22 13:24 57.47831 37.08896 31588 ft 424 kts 275°
2026-04-22 13:24 57.47986 36.98083 31586 ft 424 kts 275°
2026-04-22 13:25 57.48132 36.87209 31588 ft 424 kts 275°
2026-04-22 13:25 57.48271 36.76277 31585 ft 424 kts 275°
2026-04-22 13:26 57.48400 36.65302 31589 ft 424 kts 275°
2026-04-22 13:26 57.48519 36.54345 31585 ft 424 kts 275°
2026-04-22 13:27 57.48629 36.43381 31584 ft 424 kts 275°
2026-04-22 13:27 57.48730 36.32415 31586 ft 424 kts 275°
2026-04-22 13:28 57.48820 36.21443 31587 ft 424 kts 275°
2026-04-22 13:28 57.49102 36.10516 31584 ft 420 kts 283°
2026-04-22 13:29 57.50593 36.00156 31586 ft 414 kts 294°
2026-04-22 13:29 57.52612 35.90125 31585 ft 413 kts 294°
2026-04-22 13:30 57.54585 35.80208 31584 ft 413 kts 294°
2026-04-22 13:30 57.56568 35.70185 31582 ft 413 kts 294°
2026-04-22 13:31 57.58544 35.60153 31580 ft 412 kts 294°
2026-04-22 13:31 57.60515 35.50101 31582 ft 412 kts 294°
2026-04-22 13:32 57.62557 35.40131 31578 ft 412 kts 295°
2026-04-22 13:32 57.64617 35.30169 31581 ft 411 kts 295°
2026-04-22 13:33 57.66644 35.20253 31586 ft 411 kts 295°
2026-04-22 13:33 57.68657 35.10332 31584 ft 411 kts 295°
2026-04-22 13:34 57.70807 35.00475 31579 ft 407 kts 301°
2026-04-22 13:34 57.73902 34.91699 31582 ft 402 kts 312°
2026-04-22 13:35 57.77557 34.83909 31577 ft 401 kts 313°
2026-04-22 13:35 57.81210 34.76071 31580 ft 400 kts 313°
2026-04-22 13:36 57.84866 34.68210 31576 ft 400 kts 313°
2026-04-22 13:36 57.88522 34.60329 31573 ft 399 kts 313°
2026-04-22 13:37 57.92161 34.52459 31573 ft 399 kts 313°
2026-04-22 13:37 57.95794 34.44578 31564 ft 398 kts 313°
2026-04-22 13:38 57.99420 34.36691 31568 ft 398 kts 313°
2026-04-22 13:38 58.01807 34.31483 31571 ft 397 kts 313°
2026-04-22 13:39 58.05390 34.23640 31563 ft 397 kts 313°
2026-04-22 13:39 58.08986 34.15744 31564 ft 396 kts 313°
2026-04-22 13:40 58.12552 34.07896 31562 ft 396 kts 313°
2026-04-22 13:40 58.16130 33.99994 31558 ft 395 kts 313°
2026-04-22 13:41 58.19702 33.92077 31561 ft 395 kts 313°
2026-04-22 13:41 58.23266 33.84151 31546 ft 395 kts 313°
2026-04-22 13:42 58.26820 33.76220 31540 ft 394 kts 313°
2026-04-22 13:42 58.30369 33.68274 31538 ft 394 kts 313°
2026-04-22 13:43 58.33842 33.60472 31544 ft 393 kts 313°
2026-04-22 13:43 58.37366 33.52528 31546 ft 393 kts 313°
2026-04-22 13:44 58.40889 33.44560 31545 ft 392 kts 313°
2026-04-22 13:44 58.44372 33.36656 31418 ft 392 kts 313°
2026-04-22 13:45 58.46013 33.32923 31178 ft 389 kts 313°
2026-04-22 13:45 58.46893 33.30917 31047 ft 387 kts 313°
2026-04-22 13:45 58.47307 33.29973 30987 ft 386 kts 313°
2026-04-22 13:46 58.47926 33.28560 30893 ft 385 kts 313°
2026-04-22 13:46 58.49638 33.24650 30645 ft 383 kts 313°
2026-04-22 13:46 58.51344 33.20750 30392 ft 381 kts 313°
2026-04-22 13:47 58.53034 33.16880 30146 ft 378 kts 313°
2026-04-22 13:47 58.54709 33.13037 29902 ft 376 kts 313°
2026-04-22 13:47 58.56380 33.09200 29658 ft 373 kts 313°
2026-04-22 13:47 58.58036 33.05394 29377 ft 371 kts 313°
2026-04-22 13:48 58.59680 33.01609 29081 ft 369 kts 313°
2026-04-22 13:48 58.61317 32.97835 28817 ft 367 kts 313°
2026-04-22 13:48 58.62947 32.94073 28522 ft 365 kts 313°
2026-04-22 13:48 58.64562 32.90335 28239 ft 363 kts 312°
2026-04-22 13:49 58.66171 32.86608 27960 ft 361 kts 312°
2026-04-22 13:49 58.67769 32.82900 27687 ft 360 kts 312°
2026-04-22 13:49 58.69359 32.79204 27408 ft 358 kts 312°
2026-04-22 13:49 58.70939 32.75524 27137 ft 356 kts 312°
2026-04-22 13:50 58.71980 32.73098 26967 ft 354 kts 312°
2026-04-22 13:50 58.74072 32.68213 26615 ft 353 kts 312°
2026-04-22 13:50 58.75628 32.64573 26356 ft 351 kts 312°
2026-04-22 13:50 58.77177 32.60944 26095 ft 349 kts 312°
2026-04-22 13:51 58.78714 32.57337 25841 ft 348 kts 312°
2026-04-22 13:51 58.80238 32.53757 25589 ft 346 kts 312°
2026-04-22 13:51 58.81764 32.50165 25337 ft 345 kts 311°
2026-04-22 13:51 58.83281 32.46588 25089 ft 344 kts 311°
2026-04-22 13:52 58.84793 32.43019 24841 ft 342 kts 311°
2026-04-22 13:52 58.86296 32.39464 24588 ft 341 kts 311°
2026-04-22 13:52 58.87799 32.35908 24081 ft 342 kts 311°
2026-04-22 13:52 58.89303 32.32341 23540 ft 341 kts 311°
2026-04-22 13:53 58.90798 32.28791 22979 ft 339 kts 311°
2026-04-22 13:53 58.92277 32.25271 22421 ft 335 kts 311°
2026-04-22 13:53 58.93734 32.21797 21890 ft 330 kts 311°
2026-04-22 13:53 58.95172 32.18364 21365 ft 326 kts 311°
2026-04-22 13:54 58.96572 32.15019 20849 ft 322 kts 310°
2026-04-22 13:54 58.97973 32.11668 20322 ft 318 kts 310°
2026-04-22 13:54 58.99360 32.08345 19825 ft 315 kts 310°
2026-04-22 13:54 59.00731 32.05055 19307 ft 312 kts 310°
2026-04-22 13:55 59.02092 32.01785 18801 ft 310 kts 310°
2026-04-22 13:55 59.03443 31.98537 18291 ft 308 kts 310°
2026-04-22 13:55 59.04786 31.95304 17769 ft 307 kts 310°
2026-04-22 13:55 59.05946 31.92505 17305 ft 305 kts 310°
2026-04-22 13:56 59.07274 31.89298 16803 ft 301 kts 309°
2026-04-22 13:56 59.08579 31.86142 16309 ft 298 kts 309°
2026-04-22 13:56 59.09873 31.83010 15822 ft 296 kts 309°
2026-04-22 13:56 59.11226 31.80020 15366 ft 292 kts 315°
2026-04-22 13:57 59.12710 31.77238 14991 ft 303 kts 315°
2026-04-22 13:57 59.14200 31.74433 14602 ft 305 kts 315°
2026-04-22 13:57 59.15707 31.71584 14203 ft 299 kts 315°
2026-04-22 13:57 59.17201 31.68753 13804 ft 300 kts 315°
2026-04-22 13:58 59.18696 31.65915 13409 ft 299 kts 315°
2026-04-22 13:58 59.20178 31.63096 13000 ft 297 kts 315°
2026-04-22 13:58 59.21657 31.60280 12606 ft 296 kts 315°
2026-04-22 13:58 59.23127 31.57476 12210 ft 295 kts 315°
2026-04-22 13:59 59.24590 31.54685 11819 ft 294 kts 315°
2026-04-22 13:59 59.26047 31.51901 11445 ft 292 kts 315°
2026-04-22 13:59 59.27497 31.49126 11050 ft 291 kts 315°
2026-04-22 13:59 59.28939 31.46361 10668 ft 290 kts 315°
2026-04-22 14:00 59.30334 31.43683 10533 ft 278 kts 315°
2026-04-22 14:00 59.31682 31.41090 10425 ft 264 kts 315°
2026-04-22 14:00 59.32969 31.38612 10196 ft 257 kts 315°
2026-04-22 14:00 59.34241 31.36161 9762 ft 257 kts 316°
2026-04-22 14:01 59.35507 31.33682 9376 ft 256 kts 314°
2026-04-22 14:01 59.36709 31.31193 9194 ft 248 kts 314°
2026-04-22 14:01 59.37894 31.28693 9067 ft 252 kts 314°
2026-04-22 14:01 59.39070 31.26212 8934 ft 251 kts 314°
2026-04-22 14:02 59.40259 31.23714 8789 ft 250 kts 314°
2026-04-22 14:02 59.41447 31.21224 8669 ft 250 kts 314°
2026-04-22 14:02 59.42636 31.18736 8533 ft 250 kts 314°
2026-04-22 14:02 59.43822 31.16251 8396 ft 249 kts 314°
2026-04-22 14:03 59.45006 31.13769 8275 ft 249 kts 314°
2026-04-22 14:03 59.46190 31.11285 8131 ft 249 kts 314°
2026-04-22 14:03 59.47369 31.08807 8007 ft 248 kts 314°
2026-04-22 14:03 59.48550 31.06321 7873 ft 248 kts 314°
2026-04-22 14:04 59.49726 31.03846 7744 ft 248 kts 314°
2026-04-22 14:04 59.50889 31.01396 7618 ft 247 kts 314°
2026-04-22 14:04 59.52071 30.98901 7486 ft 247 kts 314°
2026-04-22 14:04 59.53243 30.96426 7352 ft 247 kts 314°
2026-04-22 14:05 59.54424 30.93931 7013 ft 250 kts 314°
2026-04-22 14:05 59.55612 30.91416 6637 ft 250 kts 314°
2026-04-22 14:05 59.57957 30.86440 5889 ft 247 kts 314°
2026-04-22 14:06 59.58733 30.84792 5632 ft 246 kts 314°
2026-04-22 14:06 59.59893 30.82328 5255 ft 244 kts 314°
2026-04-22 14:06 59.61049 30.79866 5049 ft 237 kts 314°
2026-04-22 14:06 59.62177 30.77464 4914 ft 240 kts 314°
2026-04-22 14:07 59.63307 30.75056 4576 ft 244 kts 314°
2026-04-22 14:07 59.64470 30.72574 4190 ft 243 kts 314°
2026-04-22 14:07 59.65598 30.70165 3829 ft 240 kts 314°
2026-04-22 14:07 59.66761 30.67837 3557 ft 234 kts 319°
2026-04-22 14:08 59.68044 30.65978 3503 ft 231 kts 324°
2026-04-22 14:08 59.69370 30.64154 3503 ft 232 kts 324°
2026-04-22 14:08 59.70685 30.62320 3398 ft 231 kts 324°
2026-04-22 14:08 59.72017 30.60453 3025 ft 232 kts 323°
2026-04-22 14:09 59.73300 30.58660 2865 ft 223 kts 323°
2026-04-22 14:09 59.74447 30.56735 2762 ft 211 kts 308°
2026-04-22 14:09 59.75125 30.54215 2669 ft 200 kts 294°
2026-04-22 14:09 59.75552 30.51656 2557 ft 191 kts 290°
2026-04-22 14:10 59.75909 30.49209 2342 ft 183 kts 290°
2026-04-22 14:10 59.76258 30.46869 2098 ft 171 kts 290°
2026-04-22 14:10 59.76589 30.44649 1881 ft 163 kts 290°
2026-04-22 14:10 59.76893 30.42610 1649 ft 144 kts 289°
2026-04-22 14:11 59.77156 30.40835 1453 ft 125 kts 288°
2026-04-22 14:11 59.77408 30.39161 1291 ft 130 kts 289°
2026-04-22 14:11 59.77664 30.37445 1091 ft 130 kts 289°
2026-04-22 14:11 59.77917 30.35746 900 ft 126 kts 287°
2026-04-22 14:12 59.78167 30.34069 724 ft 130 kts 287°
2026-04-22 14:12 59.78434 30.32287 552 ft 138 kts 287°
2026-04-22 14:12 59.78702 30.30478 360 ft 134 kts 287°
2026-04-22 14:12 59.78965 30.28711 182 ft 133 kts 287°
2026-04-22 14:13 59.79098 30.27811 105 ft 134 kts 286°
2026-04-22 14:13 59.79350 30.26111 80 ft 115 kts 287°
2026-04-22 14:13 59.79464 30.25335 81 ft 2 kts 255°
2026-04-22 14:13 59.79487 30.25207 83 ft 11 kts 356°
2026-04-22 14:14 59.79508 30.25231 81 ft 2 kts 64°
2026-04-22 14:14 59.79496 30.25340 83 ft 15 kts 107°
2026-04-22 14:14 59.79492 30.25553 82 ft 12 kts 77°
2026-04-22 14:14 59.79511 30.25718 83 ft 13 kts 76°
2026-04-22 14:15 59.79526 30.25825 86 ft 6 kts 75°
2026-04-22 14:15 59.79538 30.25921 81 ft 8 kts 76°
2026-04-22 14:15 59.79580 30.25990 80 ft 10 kts 20°
2026-04-22 14:15 59.79637 30.26028 80 ft 8 kts 21°
2026-04-22 14:16 59.79692 30.26081 80 ft 9 kts 19°
2026-04-22 14:16 59.79723 30.26100 80 ft 0 kts 16°
2026-04-22 14:16 59.79729 30.26104 72 ft 1 kts 13°
2026-04-22 14:16 59.79754 30.26117 72 ft 6 kts 15°
2026-04-22 14:17 59.79776 30.26145 75 ft 2 kts 59°
2026-04-22 14:17 59.79779 30.26179 76 ft 3 kts 93°
2026-04-22 14:17 59.79774 30.26227 80 ft 4 kts 105°
2026-04-22 14:17 59.79765 30.26291 76 ft 4 kts 107°
2026-04-22 14:18 59.79764 30.26297 77 ft 0 kts 107°